Location: Unspecified
(51.0950°N, 12.9690°E)
Time: 21:42:38
(UTC+00:00)

Daily predictions for brighter satellites

Satellite Brightness Start Highest point End
(mag) Time Altitude Azimuth Time Altitude Azimuth Time Altitude Azimuth
CSL-04 Rocket 3.8 18:38:57 10° SSE 18:44:31 89° ENE 18:50:06 10° NNW
ERS-1 Rocket 3.3 18:40:35 10° SE 18:45:23 51° ENE 18:50:15 10° N
Aureole 3 4.3 18:40:44 10° N 18:45:30 52° ENE 18:51:08 10° SSE
TSX-5 4.3 18:41:02 10° S 18:45:37 46° ESE 18:49:28 10° NE
USA 59 Rocket -0.4 18:44:16 10° NW 18:47:31 83° NE 18:51:43 10° SE
BREEZE-M DEB (TANK) 2.0 18:45:25 10° W 18:47:49 65° S 18:52:21 10° ESE
Cosmos 1378 Rocket 4.0 18:43:43 10° N 18:47:57 44° ENE 18:52:07 10° SSE
Cosmos 2322 4.3 18:44:23 10° SW 18:50:04 65° WNW 18:55:48 10° NNE
SL-08 R/B 4.4 18:46:09 10° NE 18:50:15 26° E 18:54:20 10° SSE
ATLAS 3B R/B 4.5 18:44:26 10° W 18:51:36 37° NNW 18:58:47 10° NE
Cosmos 1821 Rocket 4.2 18:48:21 10° SSE 18:54:24 52° E 19:00:32 10° NNE
Cosmos 2242 Rocket 3.6 18:50:25 10° N 18:54:53 66° ENE 18:59:16 10° SSE
Meteor 1-11 4.2 18:50:28 10° N 18:56:00 68° ENE 19:01:28 10° SSE
Cosmos 2218 Rocket 4.0 18:50:28 10° S 18:56:33 71° E 19:02:42 10° NNE
Cosmos 1943 Rocket 3.3 18:51:42 10° NW 18:57:04 44° WSW 19:02:22 10° S
Cosmos 2369 Rocket 3.1 18:53:10 10° NNW 18:58:16 34° NE 19:03:20 10° ESE
Resurs 01 Rocket 4.2 18:57:57 10° SW 19:01:21 22° W 19:04:46 10° NW
Blok-2BL 4.4 18:58:13 10° SSW 19:02:17 49° ESE 19:08:48 10° NE
RESURS DK-1 2.4 19:00:54 10° S 19:04:43 49° ESE 19:08:33 10° NE
Spot 2 Rocket 4.1 19:01:49 10° SE 19:06:29 40° ENE 19:11:09 10° N
Cosmos 1346 Rocket 3.1 19:05:57 10° N 19:09:22 39° ENE 19:12:30 12° SE
Cosmos 1733 Rocket 3.0 19:05:10 10° S 19:09:30 68° E 19:13:54 10° NNE
Cosmos 1400 Rocket 2.7 19:06:24 10° S 19:09:54 52° E 19:13:26 10° NNE
NOSS 3-4 (A) 3.1 19:04:57 10° SW 19:10:15 83° SE 19:16:13 10° NE
Cosmos 1025 Rocket 3.4 19:06:12 10° N 19:10:17 43° ENE 19:14:17 10° SSE
NOSS 3-1 (C) 4.3 19:03:58 10° NW 19:10:20 53° NE 19:18:03 11° ESE
NOSS 3-4 (C) 3.2 19:05:28 10° SW 19:10:47 83° SE 19:16:46 10° NE
Meteor 2-15 4.4 19:07:18 10° S 19:13:22 84° E 19:19:30 10° NNE
Cosmos 2278 Rocket 3.4 19:09:03 10° NW 19:14:19 40° WSW 19:19:33 10° S
IRS-1A Rocket 4.4 19:09:34 10° SSE 19:15:07 63° ENE 19:20:48 10° N
Cosmos 405 Rocket 4.3 19:14:53 10° NE 19:16:04 12° ENE 19:17:06 10° E
CZ-4B DEB 4.4 19:11:12 10° S 19:16:40 77° WSW 19:22:12 10° NNW
CZ-4B R/B 3.3 19:11:22 10° SSE 19:16:58 81° ENE 19:22:39 10° NNW
Meteor 2-15 Rocket 4.4 19:13:36 10° S 19:19:37 70° E 19:25:42 10° NNE
DNEPR-1 R/B 4.1 19:17:19 10° SW 19:21:29 63° NW 19:25:59 10° NE
NOSS 2-1 (D) 3.6 19:21:12 10° NW 19:24:27 54° SW 19:28:05 13° SSE
COSMOS 2428 4.1 19:22:37 10° WSW 19:28:03 43° NW 19:33:31 10° NNE
Cosmos 2084 Rocket 3.6 19:24:03 10° SW 19:28:06 70° NW 19:32:14 10° NE
Meteor 1-31 Rocket 4.2 19:26:24 10° SSW 19:29:37 33° W 19:32:51 10° NNW
NOSS 2-1 (E) 3.3 19:26:34 10° NW 19:29:51 63° SW 19:33:02 16° SSE
Helios 1A Rocket 2.8 19:27:56 10° N 19:31:08 62° WNW 19:34:17 10° SSW
ADEOS 3.6 19:26:20 10° SSE 19:31:33 83° WSW 19:36:48 10° NNW
Cosmos 1812 0.3 19:30:58 30° S 19:31:37 86° E 19:33:18 10° N
ATLAS 5 CENTAUR R/B 3.5 19:30:28 10° NNW 19:32:57 17° NNE 19:35:45 10° ENE
CZ-4B R/B 3.7 19:31:46 18° ESE 19:33:25 26° ENE 19:36:17 10° N
NOSS 2-1 (C) 3.7 19:31:45 10° NW 19:34:58 50° SW 19:38:09 15° SSE
SPOT 3 Rocket 4.3 19:32:22 16° SE 19:35:58 38° ENE 19:40:44 10° N
Cosmos 2221 Rocket 3.7 19:34:01 10° N 19:38:23 58° ENE 19:41:37 18° SSE
SL-8 R/B 4.3 19:35:47 10° SW 19:39:59 33° SSE 19:43:07 16° E
Cosmos 1869 4.1 19:39:50 22° ESE 19:40:59 27° E 19:44:03 10° NNE
Cosmos 44 3.8 19:37:25 10° S 19:42:10 42° ESE 19:47:08 10° NE
YAOGAN 11 4.3 19:38:03 10° NNE 19:42:12 48° E 19:46:06 12° S
SL-24 R/B 4.4 19:40:15 10° NNE 19:45:17 80° WNW 19:49:39 10° SSW
COSMOS 2455 4.0 19:40:43 10° NNW 19:46:10 34° NE 19:50:49 13° E
SL-16 R/B 2.4 19:41:16 10° S 19:46:39 47° ESE 19:52:05 10° NE
SJ 16-02 3.7 19:45:24 10° NNE 19:46:48 11° NE 19:48:11 10° ENE
CZ-2C R/B 3.6 19:47:29 20° E 19:47:58 21° ENE 19:50:14 10° NNE
CZ-4 R/B 3.6 19:53:00 10° SW 19:55:55 21° W 19:58:48 10° NW
Terra 2.7 19:53:16 10° S 19:57:46 45° W 20:02:18 10° NNW
Cosmos 2292 Rocket 3.7 19:55:06 10° NNW 19:59:44 66° W 20:02:32 17° S
USA 234 3.2 19:53:58 10° ENE 20:00:31 69° SE 20:07:03 10° SW
Cosmos 1602 2.7 20:01:26 10° NNW 20:03:43 59° W 20:04:04 50° SW
Cosmos 1975 Rocket 3.8 19:59:59 10° N 20:04:09 38° ENE 20:05:46 28° ESE
ASTEX 1 3.4 20:00:05 15° S 20:04:12 84° W 20:09:11 10° N
Cosmos 1174 4.3 20:01:18 10° NNW 20:04:24 34° NE 20:05:21 27° E
SL-08 R/B 4.4 19:59:23 10° S 20:05:30 79° E 20:11:38 10° NNE
BREEZE-M DEB (TANK) 4.4 20:00:53 10° SSW 20:05:32 47° SE 20:22:32 10° ENE
Lacrosse 5 rocket 2.4 20:03:36 10° NW 20:06:26 28° N 20:08:38 14° ENE
USA 186 1.8 20:07:29 37° SW 20:07:54 42° W 20:10:07 10° NNW
Okean-O 2.8 20:04:47 18° S 20:07:58 67° WSW 20:12:21 10° NNW
NOSS 3-1 (A) 4.3 20:02:02 10° NW 20:08:31 56° NE 20:14:28 19° ESE
Cosmos 921 Rocket 4.0 20:07:02 10° N 20:11:06 34° ENE 20:12:40 26° E
Cosmos 2058 3.8 20:07:45 10° N 20:11:14 29° ENE 20:12:01 27° E
SeaSat 1 4.3 20:08:36 12° E 20:11:48 21° NE 20:15:26 10° N
Cosmos 2237 Rocket 3.6 20:10:52 10° WSW 20:16:14 42° NW 20:21:40 10° NNE
Cosmos 1934 Rocket 3.9 20:10:59 12° S 20:16:50 77° E 20:23:02 10° NNE
Cosmos 2298 Rocket 3.9 20:12:06 10° SSW 20:17:22 70° ESE 20:22:41 10° NNE
Okean O Rocket 2.3 20:16:04 17° S 20:19:11 50° W 20:23:25 10° NNW
SWAS 4.2 20:16:42 10° NNW 20:20:46 81° ENE 20:22:06 41° SE
Cosmos 1908 Rocket 3.6 20:17:46 13° SSW 20:21:34 74° W 20:25:54 10° N
SL-08 R/B 4.3 20:23:23 10° N 20:28:07 50° WNW 20:32:50 10° SW
Cosmos 546 4.3 20:27:35 10° W 20:31:15 85° S 20:32:08 50° E
Cosmos 1782 Rocket 3.4 20:29:44 36° S 20:31:25 74° E 20:35:44 10° NNE
Cosmos 2297 3.9 20:28:35 10° NNW 20:34:19 69° WSW 20:37:09 31° S
Cosmos 2123 Rocket 4.4 20:29:23 10° NNW 20:35:35 61° W 20:40:21 18° S
USA 59 Rocket 2.3 20:34:05 10° W 20:35:53 13° WSW 20:37:55 10° SSW
Ariane Rocket 2.9 20:35:19 35° SSE 20:37:31 90° W 20:42:37 10° NNW
Cosmos 1269 Rocket 4.0 20:32:59 10° NNW 20:38:18 80° ENE 20:40:19 39° SSE
Geosat 4.4 20:33:28 10° NNE 20:38:26 63° NW 20:43:22 10° SW
CZ-4B R/B 3.5 20:39:58 33° S 20:42:03 71° WSW 20:46:49 10° NNW
Cosmos 2369 Rocket 2.6 20:37:05 10° NW 20:42:32 54° WSW 20:45:12 29° S
ATLAS 3B R/B 4.4 20:37:26 10° NW 20:44:30 34° N 20:51:24 10° ENE
Cosmos 1862 2.9 20:41:15 10° N 20:44:52 71° ENE 20:45:01 69° ESE
BREEZE-M DEB (TANK) 3.6 20:46:03 10° W 20:47:45 31° SW 20:47:45 31° SW
Cosmos 405 Rocket 2.9 20:46:25 10° NNW 20:49:13 43° W 20:49:13 43° W
Cosmos 1315 Rocket 2.5 20:49:30 69° S 20:49:55 85° E 20:53:41 10° NNE
Cosmos 1140 Rocket 3.5 20:48:41 10° NNW 20:53:50 74° WSW 20:55:29 43° S
Cosmos 1356 Rocket 3.2 20:55:21 68° SE 20:55:36 71° E 20:59:36 10° NNE
Helios 1A 4.2 20:52:18 10° NE 20:54:50 26° ENE 20:54:50 26° ENE
Cosmos 1535 Rocket 4.4 20:56:05 26° SSW 20:59:42 85° WNW 21:05:53 10° N
Cosmos 1943 3.1 20:57:38 35° S 20:59:58 66° ESE 21:05:37 10° NE
NOSS 3-1 (C) 4.3 20:54:33 10° NW 21:01:25 58° SW 21:05:21 32° S
Cosmos 1300 Rocket 4.4 20:59:46 22° SW 21:02:15 47° WNW 21:06:25 10° N
Cosmos 1605 Rocket 3.9 20:59:02 29° S 21:02:23 87° WNW 21:08:35 10° N
Cosmos 407 Rocket 3.4 20:59:46 10° NNW 21:04:56 72° ENE 21:06:05 52° SE
CZ-4B R/B 4.2 21:06:28 24° WSW 21:07:09 26° W 21:10:04 10° NW
Cosmos 2251 Rocket 4.2 21:05:42 10° NNW 21:10:48 44° ENE 21:12:12 37° E
Cosmos 1536 Rocket 3.8 21:11:09 10° N 21:15:23 51° ENE 21:15:24 51° ENE
ATLAS 5 CENTAUR R/B 2.0 21:11:51 10° NW 21:15:42 52° NE 21:16:26 46° ENE
Cosmos 2173 Rocket 4.2 21:16:00 43° ESE 21:17:07 47° E 21:22:56 10° NNE
Cosmos 304 Rocket 3.6 21:12:27 10° NNW 21:17:15 80° ENE 21:17:50 67° SE
ATLAS 2AS CENTAUR R/B 4.5 21:19:12 14° E 21:19:12 14° E 21:21:10 10° ENE
CZ-2C R/B 4.2 21:19:16 21° W 21:19:16 21° W 21:21:11 10° NW
SL-8 R/B 4.0 21:17:11 10° WSW 21:20:53 49° SW 21:20:53 49° SW
Cosmos 44 4.5 21:18:19 10° WSW 21:23:17 47° NW 21:28:29 10° NE
SJ 16-02 1.4 21:21:34 10° NNW 21:25:48 61° ENE 21:25:48 61° ENE
SL-16 R/B 3.5 21:25:37 10° WSW 21:30:53 39° NW 21:36:13 10° NNE
COSMOS 2455 2.8 21:26:36 10° NW 21:32:37 74° WSW 21:33:56 55° S
Helios 1B rocket 2.8 21:35:30 50° N 21:35:30 50° N 21:38:12 10° NNW
Cosmos 2100 Rocket 3.9 21:35:55 54° SSE 21:37:11 68° E 21:43:21 10° NNE
Spot 4 4.5 21:39:46 41° ENE 21:40:06 42° ENE 21:44:34 10° N
Cosmos 2151 Rocket 3.7 21:40:32 64° ENE 21:40:32 64° ENE 21:44:30 10° NNE
ARIANE 6 FM1 Upper Stage 4.3 21:36:40 10° NW 21:40:07 27° NNE 21:41:18 23° NE
Cosmos 1656 3.6 21:37:44 10° NNW 21:43:12 71° ENE 21:44:05 59° ESE
Lacrosse 5 rocket 2.6 21:40:14 10° WNW 21:41:54 28° NW 21:41:54 28° NW
USA 234 3.7 21:37:05 10° ENE 21:43:33 64° NNW 21:50:00 10° W
Okean 1 Rocket 3.6 21:47:37 48° NE 21:47:37 48° NE 21:51:07 10° NNE
Cosmos 2058 4.3 21:43:52 10° NNW 21:47:13 27° W 21:47:22 27° W
Okean 2 Rocket 3.4 21:48:31 57° NE 21:48:31 57° NE 21:52:23 10° NNE
SeaSat 1 2.3 21:48:12 75° ESE 21:48:35 83° ENE 21:53:31 10° NNW
Cosmos 921 Rocket 4.2 21:45:12 10° NW 21:49:08 32° W 21:49:15 32° WSW
Cosmos 1833 Rocket 4.3 21:53:54 20° E 21:53:54 20° E 21:56:53 10° NE
Meteor 2-1 Rocket 4.2 21:52:20 62° SE 21:52:59 67° E 21:58:44 10° NNE
Cosmos 371 Rocket 3.7 21:53:35 10° NNW 21:58:17 52° WSW 21:58:17 52° WSW
NOSS 3-1 (A) 4.3 21:52:42 10° NW 21:59:37 56° SW 22:01:50 44° S
Cosmos 1455 Rocket 4.2 22:00:37 35° ENE 22:00:37 35° ENE 22:03:48 10° NNE
Cosmos 1190 Rocket 3.8 21:56:57 10° NNW 22:02:17 86° WSW 22:02:34 80° S
Cosmos 1864 Rocket 4.4 22:04:02 61° SSE 22:05:06 75° E 22:11:28 10° NNE
Cosmos 968 Rocket 4.0 22:04:55 10° NNW 22:09:58 47° ENE 22:10:36 45° E
Cosmos 972 Rocket 4.5 22:12:56 60° SE 22:13:32 63° ESE 22:20:13 10° NNE
SL-08 R/B 4.4 22:13:55 60° SE 22:14:36 65° E 22:20:46 10° NNE
DEBRIS 3.9 22:15:11 63° SSE 22:15:17 64° SSE 22:28:41 10° ENE
Cosmos 1725 Rocket 3.9 22:19:03 65° S 22:20:06 86° E 22:26:27 10° N
CZ-2C R/B 4.3 22:16:47 10° NNE 22:20:55 29° E 22:20:55 29° E
ALOS 2 2.9 22:21:56 66° N 22:21:56 66° N 22:25:48 10° NNW
Cosmos 292 Rocket 4.3 22:17:53 10° NNW 22:22:34 48° ENE 22:22:40 48° ENE
Sich 1 Rocket 3.9 22:24:09 63° NNW 22:24:09 63° NNW 22:27:59 10° N
Cosmos 1818 3.6 22:21:17 10° NW 22:26:30 65° WSW 22:26:30 65° WSW
Cosmos 1459 Rocket 4.3 22:26:35 47° SW 22:28:14 63° WNW 22:34:31 10° N
CZ-2C R/B 3.5 22:27:19 37° E 22:28:18 40° ENE 22:33:20 10° N
ARIANE 5 R/B 3.0 22:29:14 59° NW 22:29:14 59° NW 22:32:56 10° NNW
Meteor 2-3 Rocket 4.2 22:24:44 10° NNW 22:30:06 48° W 22:30:39 46° WSW
Helios 1A 4.3 22:26:56 10° N 22:30:28 31° WNW 22:30:33 31° WNW
Cosmos 1420 Rocket 4.0 22:31:09 67° W 22:31:35 71° WNW 22:36:53 10° NNE
Cosmos 2233 Rocket 3.9 22:31:13 66° SSE 22:31:58 75° E 22:38:14 10° NNE
Cosmos 1802 Rocket 4.0 22:31:54 58° SW 22:33:07 74° W 22:39:24 10° N
PSLV R/B 4.5 22:29:06 10° NNE 22:32:00 40° NE 22:32:00 40° NE
Cosmos 1954 Rocket 4.2 22:28:32 10° NNW 22:33:27 58° W 22:33:27 58° W
Cosmos 676 Rocket 4.0 22:30:35 10° NNW 22:35:43 73° W 22:35:43 73° W
Meteor 2-12 Rocket 4.2 22:30:08 10° NNW 22:36:14 85° W 22:36:53 72° S
ATLAS 3B R/B 3.4 22:29:03 10° NW 22:36:51 59° NE 22:41:39 24° ESE
Cosmos 1697 Rocket 2.8 22:31:43 10° NNW 22:37:22 68° ENE 22:38:01 62° E
Cosmos 1603 4.2 22:37:50 39° WSW 22:39:35 55° NW 22:45:12 10° NNE
Cosmos 2016 Rocket 4.2 22:51:29 53° SW 22:52:45 64° WNW 22:59:03 10° N
Cosmos 1850 Rocket 4.0 22:49:22 10° NNW 22:54:33 69° ENE 22:54:37 69° ENE
Cosmos 2056 Rocket 3.5 22:55:01 78° W 22:55:11 79° WNW 23:00:38 10° NNE
Cosmos 1980 Rocket 2.9 22:51:31 10° NNW 22:57:04 49° NE 22:58:36 39° E
ATLAS 5 CENTAUR R/B 3.5 22:53:58 10° WNW 22:55:34 20° WNW 22:55:34 20° WNW
Meteor 1-27 4.2 22:57:28 72° WSW 22:57:56 77° WNW 23:03:42 10° N
USA 229 DEB 4.0 22:51:19 10° NW 22:58:43 82° NE 23:02:00 40° SE
USA 229 4.0 22:51:22 10° NW 22:58:46 82° NE 23:02:08 40° SE
SJ 16-02 3.6 23:00:40 10° NW 23:02:18 15° WNW 23:02:18 15° WNW
Cosmos 1624 Rocket 4.0 23:03:21 70° WNW 23:03:26 70° WNW 23:08:38 10° NNE
Cosmos 1331 Rocket 4.4 23:06:13 53° E 23:06:13 53° E 23:10:51 10° NNE
ATLAS 2AS CENTAUR R/B 2.6 23:06:34 62° SSE 23:07:09 64° SE 23:13:54 10° NE
CZ-4C R/B 4.2 23:08:45 11° E 23:08:45 11° E 23:09:21 10° E
Cosmos 1626 Rocket 4.1 23:03:45 10° N 23:07:07 54° N 23:07:07 54° N
Cosmos 2228 3.8 23:11:55 49° NNW 23:11:55 49° NNW 23:15:09 10° N
Cosmos 1782 4.4 23:14:01 28° NNW 23:14:01 28° NNW 23:15:58 10° N
Aureole 3 Rocket 3.5 23:15:01 78° WNW 23:15:01 78° WNW 23:21:20 10° N
MetOp-A 4.2 23:16:23 58° WNW 23:16:23 58° WNW 23:21:04 10° NNW
Cosmos 2098 Rocket 4.3 23:16:09 43° E 23:16:29 43° E 23:21:47 10° NNE
ARIANE 6 FM1 Upper Stage 4.4 23:15:30 10° NW 23:17:16 25° NW 23:17:16 25° NW
Cosmos 2333 Rocket 4.4 23:15:56 10° NNW 23:20:21 23° NE 23:24:46 10° E
Cosmos 1110 Rocket 4.0 23:21:16 75° E 23:21:16 75° E 23:26:20 10° NNE
Cosmos 1513 Rocket 4.4 23:22:24 67° SSE 23:23:14 78° E 23:29:35 10° NNE
Cosmos 2061 Rocket 4.2 23:23:00 52° WSW 23:24:00 59° WNW 23:30:09 10° N
ACS3 Solar Sail 3.0 23:18:51 10° NNE 23:24:02 29° E 23:25:14 27° ESE
Okean 1-7 Rocket 4.5 23:20:34 10° N 23:24:25 43° ENE 23:24:25 43° ENE
USA 234 3.9 23:19:47 10° E 23:26:08 54° N 23:32:28 10° WNW
SeaSat 1 4.4 23:27:48 17° W 23:27:48 17° W 23:29:52 10° WNW
Meteor 2-9 4.5 23:21:59 10° NNW 23:27:21 83° W 23:27:21 83° W
Landsat 5 4.2 23:27:42 10° NNE 23:31:03 52° NE 23:31:03 52° NE
Cosmos 2082 Rocket 3.5 23:32:19 28° ESE 23:32:23 28° ESE 23:37:09 10° NE
Cosmos 1833 Rocket 2.6 23:35:32 69° W 23:36:02 74° WNW 23:41:40 10° NNE
Timation 1 Rocket 4.3 23:37:27 62° SE 23:37:43 63° ESE 23:43:40 10° NE
Cosmos 1544 Rocket 4.0 23:46:32 56° NNW 23:46:32 56° NNW 23:50:17 10° N
Cosmos 1076 Rocket 4.4 23:43:42 10° N 23:47:43 44° ENE 23:47:43 44° ENE
BREEZE-M R/B 4.0 23:41:17 10° W 23:48:24 86° S 23:54:26 10° E
Cosmos 2151 4.1 23:48:24 10° NNW 23:51:14 36° NW 23:51:14 36° NW
SL-16 R/B 3.7 23:47:41 10° NNW 23:52:52 35° NE 23:58:01 10° ESE
